[Date Prev][Date Next][Thread Prev][Thread Next] - [Date Index][Thread Index][Author Index]
2 Line ISS Keps 6-17
- Subject: [sarex] 2 Line ISS Keps 6-17
- From: "Dave Larsen PhD" <doc@xxxxxxxxxxx>
- Date: Sun, 17 Jun 2001 05:38:35 -0700
ISS
1 25544U 98067A 01168.43888889 .00042856 00000-0 47880-3 0 998
2 25544 51.5702 87.4066 0017277 171.7335 344.9040 15.62138443147119
----
Via the sarex mailing list at AMSAT.ORG courtesy of AMSAT-NA.
To unsubscribe, send "unsubscribe sarex" to Majordomo@amsat.org
AMSAT Home